{"data":{"norad_id":54667,"intl_designator":"2022-166AB","name":"ONEWEB-0603","alt_names":[],"object_type":"PAYLOAD","status":"ACTIVE","operator":null,"country":"UK","launch_date":"2022-12-08","launch_site_code":"AFETR","launch_vehicle":null,"mission":null,"orbit_class":"UNKNOWN","rcs_meters":null,"size_class":null,"mass_kg":null,"dimensions":null,"purposes":["comms"],"wikipedia_slug":null,"has_3d_model":false,"image_url":null,"decayed_at":null,"tle_current":{"epoch":"2026-05-25T05:17:26.420352Z","epoch_age_seconds":53233,"freshness":"FRESH","line1":"1 54667U 22166AB  26145.22044468  .00000099  00000+0  20903-3 0  9997","line2":"2 54667  87.9260 248.5258 0002036  97.3350 262.8015 13.21825204168449","mean_motion":13.21825204,"eccentricity":0.0002036,"inclination_deg":87.926,"raan_deg":248.5258,"arg_perigee_deg":97.335,"mean_anomaly_deg":262.8015,"bstar":0.00020903,"rev_number":16844,"period_min":108.94027407273,"perigee_km":1176.2180218971,"apogee_km":1179.2947816903,"semimajor_km":7555.8934017937,"source":"CELESTRAK","updated_at":"2026-05-25T13:38:22.635307Z"}}}